Regional Weather Roundup
Issued by NWS

Home | Current Version | Previous Version | Text Only | Print | Product List | Glossary On
Versions: 1 2 3 4 5 6 7 8 9 10 11 12 13 14 15 16 17 18 19 20 21 22 23 24 25 26 27
000
ASUS42 KKEY 192210
RWRKEY

FLORIDA REGIONAL WEATHER ROUNDUP FOR THE FLORIDA KEYS
NATIONAL WEATHER SERVICE KEY WEST FLORIDA
600 PM EDT TUE SEP 19 2017

...SOUTH FLORIDA AND THE KEYS...

CITY           SKY/WX    TMP DP  RH WIND       PRES   REMARKS
FORT MYERS     PTSUNNY   88  72  58 NE9       29.88S HX  94
SW REGIONAL AP PTSUNNY   87  71  58 NE8       29.88S HX  93
NAPLES         PTSUNNY   85  76  74 W13       29.89S HX  94
MIAMI          PTSUNNY   87  76  69 SE10G22   29.89S HX  97
WEST KENDALL   MOSUNNY   87  76  69 SE8       29.89S HX  97
HOMESTEAD      PTSUNNY   86  79  79 S12       29.89R HX  99
MARATHON       SUNNY     86  74  67 NW8       29.90F HX  94
BOCA CHICA NAS SUNNY     96  78  56 MISG      29.91S HX 112
KEY WEST INTL  MOSUNNY   86  76  71 N8        29.91S HX  96

...INTERNATIONAL WEATHER...

CITY           SKY/WX    TMP DP  RH WIND       PRES   REMARKS
NASSAU BAHAMAS MOSUNNY   90  77  66 N5        29.93F HX 102
CANCUN MEXICO  MOSUNNY   86  77  74 E9        29.88S HX  97
COZUMEL MEXICO PTSUNNY   86  79  79 E7        29.85S HX  99

ADJACENT COASTAL WATERS...

STATION/POSITION TIME  SKY/WX   TEMP    WIND        PRES    WAVE
                                AIR SEA DIR/SP/G            HT/PER
                 (UTC)          (F)     (DEG/KT/KT) (MB)    (FT/S)
PULASKI SHOAL LI 2200            83      20/  7/  8 1013.1F
SAND KEY         2150            82                 1013.3F
LONG KEY         NOT AVBL
MOLASSES REEF    2100            85 85  200/  9/ 10 1012.9
FOWEY ROCKS      2100            85 85  160/ 15/ 15 1012.8F
Buoy 42097       2130               85                N/A     2/ 3

$$




USA.gov is the U.S. government's official web portal to all federal, state and local government web resources and services.